Time,TemperatureF,DewpointF,PressureIn,WindDirection,WindDirectionDegrees,WindSpeedMPH,WindSpeedGustMPH,Humidity,HourlyPrecipIn,Conditions,Clouds,dailyrainin,SoftwareType,DateUTC
2013-09-16 00:10:00,62.0,60.0,29.86,South,174,0.0,-999.0,92,-99.99,,,0.00,weatherlink.com 1.10,2013-09-16 07:10:00,
2013-09-16 00:25:00,62.0,60.0,29.86,South,174,0.0,-999.0,92,-99.99,,,0.00,weatherlink.com 1.10,2013-09-16 07:25:00,
2013-09-16 00:40:00,62.0,60.0,29.86,South,174,0.0,-999.0,92,-99.99,,,0.00,weatherlink.com 1.10,2013-09-16 07:40:00,
2013-09-16 00:55:00,61.8,60.0,29.86,South,173,0.0,-999.0,92,-99.99,,,0.00,weatherlink.com 1.10,2013-09-16 07:55:00,
2013-09-16 01:10:00,61.8,60.0,29.86,South,174,0.0,-999.0,92,-99.99,,,0.00,weatherlink.com 1.10,2013-09-16 08:10:00,
2013-09-16 01:25:00,61.8,60.0,29.86,South,190,0.0,-999.0,92,-99.99,,,0.00,weatherlink.com 1.10,2013-09-16 08:25:00,
2013-09-16 01:40:00,61.6,59.0,29.86,South,190,0.0,-999.0,92,-99.99,,,0.00,weatherlink.com 1.10,2013-09-16 08:40:00,
2013-09-16 01:55:00,61.5,59.0,29.86,SE,144,0.0,-999.0,92,-99.99,,,0.00,weatherlink.com 1.10,2013-09-16 08:55:00,
2013-09-16 02:10:00,61.5,59.0,29.86,SSW,212,0.0,-999.0,92,-99.99,,,0.00,weatherlink.com 1.10,2013-09-16 09:10:00,
2013-09-16 02:25:00,61.5,59.0,29.86,SSW,204,0.0,-999.0,92,-99.99,,,0.00,weatherlink.com 1.10,2013-09-16 09:25:00,
2013-09-16 02:40:00,61.6,59.0,29.85,SW,235,0.0,-999.0,92,-99.99,,,0.00,weatherlink.com 1.10,2013-09-16 09:40:00,
2013-09-16 02:55:00,61.6,59.0,29.85,SSE,153,0.0,-999.0,92,-99.99,,,0.00,weatherlink.com 1.10,2013-09-16 09:55:00,
2013-09-16 03:10:00,61.6,59.0,29.85,West,259,0.0,-999.0,92,-99.99,,,0.00,weatherlink.com 1.10,2013-09-16 10:10:00,
2013-09-16 03:25:00,61.8,60.0,29.85,ESE,117,0.0,-999.0,92,-99.99,,,0.00,weatherlink.com 1.10,2013-09-16 10:25:00,
2013-09-16 03:40:00,62.0,60.0,29.85,South,187,0.0,-999.0,92,-99.99,,,0.00,weatherlink.com 1.10,2013-09-16 10:40:00,
2013-09-16 03:55:00,62.0,60.0,29.86,West,265,0.0,-999.0,92,-99.99,,,0.00,weatherlink.com 1.10,2013-09-16 10:55:00,
2013-09-16 04:10:00,62.0,59.0,29.85,SSE,167,0.0,-999.0,91,-99.99,,,0.00,weatherlink.com 1.10,2013-09-16 11:10:00,
2013-09-16 04:25:00,62.0,59.0,29.85,SSE,167,0.0,-999.0,91,-99.99,,,0.00,weatherlink.com 1.10,2013-09-16 11:25:00,
2013-09-16 04:40:00,61.8,59.0,29.85,SSE,167,0.0,-999.0,91,-99.99,,,0.00,weatherlink.com 1.10,2013-09-16 11:40:00,
2013-09-16 04:55:00,61.6,59.0,29.85,SSE,167,0.0,-999.0,92,-99.99,,,0.00,weatherlink.com 1.10,2013-09-16 11:55:00,
2013-09-16 05:10:00,61.5,59.0,29.85,SSE,167,0.0,-999.0,92,-99.99,,,0.00,weatherlink.com 1.10,2013-09-16 12:10:00,
2013-09-16 05:25:00,61.5,59.0,29.86,South,179,1.0,-999.0,92,-99.99,,,0.00,weatherlink.com 1.10,2013-09-16 12:25:00,
2013-09-16 05:40:00,61.3,59.0,29.86,SSW,205,0.0,-999.0,92,-99.99,,,0.00,weatherlink.com 1.10,2013-09-16 12:40:00,
2013-09-16 05:55:00,61.5,59.0,29.86,SSE,163,0.0,-999.0,92,-99.99,,,0.00,weatherlink.com 1.10,2013-09-16 12:55:00,
2013-09-16 06:10:00,61.2,59.0,29.86,SSE,163,0.0,-999.0,92,-99.99,,,0.00,weatherlink.com 1.10,2013-09-16 13:10:00,
2013-09-16 06:25:00,60.7,58.0,29.87,SW,223,0.0,-999.0,92,-99.99,,,0.00,weatherlink.com 1.10,2013-09-16 13:25:00,
2013-09-16 06:40:00,60.4,58.0,29.87,SW,223,0.0,-999.0,92,-99.99,,,0.00,weatherlink.com 1.10,2013-09-16 13:40:00,
2013-09-16 06:55:00,60.2,58.0,29.87,SW,223,0.0,-999.0,92,-99.99,,,0.00,weatherlink.com 1.10,2013-09-16 13:55:00,
2013-09-16 07:10:00,60.1,58.0,29.87,SW,223,0.0,-999.0,92,-99.99,,,0.00,weatherlink.com 1.10,2013-09-16 14:10:00,
2013-09-16 07:25:00,60.1,58.0,29.87,SW,230,0.0,-999.0,92,-99.99,,,0.00,weatherlink.com 1.10,2013-09-16 14:25:00,
2013-09-16 07:40:00,59.9,58.0,29.87,SW,230,0.0,-999.0,92,-99.99,,,0.00,weatherlink.com 1.10,2013-09-16 14:40:00,
2013-09-16 07:55:00,59.9,58.0,29.87,SW,230,0.0,-999.0,92,-99.99,,,0.00,weatherlink.com 1.10,2013-09-16 14:55:00,
2013-09-16 08:10:00,60.2,58.0,29.87,SW,230,0.0,-999.0,92,-99.99,,,0.00,weatherlink.com 1.10,2013-09-16 15:10:00,
2013-09-16 08:25:00,60.5,58.0,29.88,South,170,2.0,-999.0,91,-99.99,,,0.00,weatherlink.com 1.10,2013-09-16 15:25:00,
2013-09-16 08:40:00,61.0,58.0,29.88,South,170,0.0,-999.0,90,-99.99,,,0.00,weatherlink.com 1.10,2013-09-16 15:40:00,
2013-09-16 08:55:00,61.6,58.0,29.88,South,169,0.0,-999.0,88,-99.99,,,0.00,weatherlink.com 1.10,2013-09-16 15:55:00,
2013-09-16 09:10:00,62.4,59.0,29.88,WSW,248,0.0,-999.0,87,-99.99,,,0.00,weatherlink.com 1.10,2013-09-16 16:10:00,
2013-09-16 09:25:00,63.5,59.0,29.88,East,90,0.0,-999.0,84,-99.99,,,0.00,weatherlink.com 1.10,2013-09-16 16:25:00,
2013-09-16 09:40:00,65.6,59.0,29.89,SSE,156,0.0,-999.0,78,-99.99,,,0.00,weatherlink.com 1.10,2013-09-16 16:40:00,
2013-09-16 09:55:00,67.3,58.0,29.88,SW,223,0.0,-999.0,72,-99.99,,,0.00,weatherlink.com 1.10,2013-09-16 16:55:00,
2013-09-16 10:11:00,68.1,58.0,29.88,SW,224,2.0,-999.0,69,-99.99,,,0.00,weatherlink.com 1.10,2013-09-16 17:11:00,
2013-09-16 10:26:00,68.4,58.0,29.88,West,279,3.0,-999.0,69,-99.99,,,0.00,weatherlink.com 1.10,2013-09-16 17:26:00,
2013-09-16 10:41:00,68.8,59.0,29.88,SW,217,1.0,-999.0,70,-99.99,,,0.00,weatherlink.com 1.10,2013-09-16 17:41:00,
2013-09-16 10:56:00,68.6,58.0,29.89,WSW,250,0.0,-999.0,69,-99.99,,,0.00,weatherlink.com 1.10,2013-09-16 17:56:00,
2013-09-16 11:11:00,68.1,58.0,29.89,SW,227,0.0,-999.0,70,-99.99,,,0.00,weatherlink.com 1.10,2013-09-16 18:11:00,
2013-09-16 11:26:00,68.9,58.0,29.89,SW,223,0.0,-999.0,69,-99.99,,,0.00,weatherlink.com 1.10,2013-09-16 18:26:00,
2013-09-16 11:41:00,69.4,58.0,29.89,WSW,240,3.0,-999.0,68,-99.99,,,0.00,weatherlink.com 1.10,2013-09-16 18:41:00,
2013-09-16 11:56:00,71.1,58.0,29.88,ESE,103,1.0,-999.0,64,-99.99,,,0.00,weatherlink.com 1.10,2013-09-16 18:56:00,
2013-09-16 12:11:00,72.5,58.0,29.88,SW,228,0.0,-999.0,61,-99.99,,,0.00,weatherlink.com 1.10,2013-09-16 19:11:00,
2013-09-16 12:26:00,73.3,59.0,29.88,West,279,0.0,-999.0,62,-99.99,,,0.00,weatherlink.com 1.10,2013-09-16 19:26:00,
2013-09-16 12:41:00,73.0,59.0,29.88,West,275,1.0,-999.0,62,-99.99,,,0.00,weatherlink.com 1.10,2013-09-16 19:41:00,
2013-09-16 12:56:00,73.9,59.0,29.88,SSW,209,0.0,-999.0,59,-99.99,,,0.00,weatherlink.com 1.10,2013-09-16 19:56:00,
2013-09-16 13:12:00,73.7,58.0,29.88,WSW,254,0.0,-999.0,59,-99.99,,,0.00,weatherlink.com 1.10,2013-09-16 20:12:00,
2013-09-16 13:27:00,73.9,59.0,29.87,WSW,257,0.0,-999.0,59,-99.99,,,0.00,weatherlink.com 1.10,2013-09-16 20:27:00,
2013-09-16 13:42:00,74.4,59.0,29.86,WSW,240,0.0,-999.0,58,-99.99,,,0.00,weatherlink.com 1.10,2013-09-16 20:42:00,
2013-09-16 13:57:00,74.2,58.0,29.86,SW,232,0.0,-999.0,58,-99.99,,,0.00,weatherlink.com 1.10,2013-09-16 20:57:00,
2013-09-16 14:12:00,73.7,58.0,29.85,West,268,0.0,-999.0,58,-99.99,,,0.00,weatherlink.com 1.10,2013-09-16 21:12:00,
2013-09-16 14:27:00,73.0,57.0,29.85,WSW,251,0.0,-999.0,58,-99.99,,,0.00,weatherlink.com 1.10,2013-09-16 21:27:00,
2013-09-16 14:42:00,73.7,56.0,29.84,WSW,248,1.0,-999.0,55,-99.99,,,0.00,weatherlink.com 1.10,2013-09-16 21:42:00,
2013-09-16 14:58:00,74.0,56.0,29.84,SW,221,1.0,-999.0,54,-99.99,,,0.00,weatherlink.com 1.10,2013-09-16 21:58:00,
2013-09-16 15:12:00,73.9,57.0,29.84,SW,220,0.0,-999.0,56,-99.99,,,0.00,weatherlink.com 1.10,2013-09-16 22:12:00,
2013-09-16 15:27:00,74.2,56.0,29.83,WSW,256,0.0,-999.0,54,-99.99,,,0.00,weatherlink.com 1.10,2013-09-16 22:27:00,
2013-09-16 15:42:00,75.4,57.0,29.82,WSW,254,1.0,-999.0,54,-99.99,,,0.00,weatherlink.com 1.10,2013-09-16 22:42:00,
2013-09-16 15:57:00,77.0,57.0,29.82,WSW,255,2.0,-999.0,50,-99.99,,,0.00,weatherlink.com 1.10,2013-09-16 22:57:00,
2013-09-16 16:13:00,79.2,57.0,29.81,West,275,1.0,-999.0,46,-99.99,,,0.00,weatherlink.com 1.10,2013-09-16 23:13:00,
2013-09-16 16:28:00,78.5,57.0,29.81,South,183,1.0,-999.0,47,-99.99,,,0.00,weatherlink.com 1.10,2013-09-16 23:28:00,
2013-09-16 16:42:00,78.3,56.0,29.81,South,175,2.0,-999.0,47,-99.99,,,0.00,weatherlink.com 1.10,2013-09-16 23:42:00,
2013-09-16 16:57:00,77.6,56.0,29.81,SW,221,0.0,-999.0,48,-99.99,,,0.00,weatherlink.com 1.10,2013-09-16 23:57:00,
2013-09-16 17:13:00,76.5,56.0,29.80,South,190,0.0,-999.0,50,-99.99,,,0.00,weatherlink.com 1.10,2013-09-17 00:13:00,
2013-09-16 17:28:00,75.6,57.0,29.81,SE,130,0.0,-999.0,52,-99.99,,,0.00,weatherlink.com 1.10,2013-09-17 00:28:00,
2013-09-16 17:42:00,74.9,56.0,29.80,SSW,213,0.0,-999.0,53,-99.99,,,0.00,weatherlink.com 1.10,2013-09-17 00:42:00,
2013-09-16 17:57:00,73.9,57.0,29.80,SSW,213,0.0,-999.0,55,-99.99,,,0.00,weatherlink.com 1.10,2013-09-17 00:57:00,
2013-09-16 18:13:00,71.8,57.0,29.79,SSW,206,0.0,-999.0,59,-99.99,,,0.00,weatherlink.com 1.10,2013-09-17 01:13:00,
2013-09-16 18:28:00,70.4,57.0,29.79,SE,138,0.0,-999.0,63,-99.99,,,0.00,weatherlink.com 1.10,2013-09-17 01:28:00,
2013-09-16 18:43:00,69.3,57.0,29.80,SSW,200,0.0,-999.0,64,-99.99,,,0.00,weatherlink.com 1.10,2013-09-17 01:43:00,
2013-09-16 18:58:00,68.3,56.0,29.80,SE,140,0.0,-999.0,66,-99.99,,,0.00,weatherlink.com 1.10,2013-09-17 01:58:00,
2013-09-16 19:13:00,67.1,57.0,29.79,SSE,159,0.0,-999.0,69,-99.99,,,0.00,weatherlink.com 1.10,2013-09-17 02:13:00,
2013-09-16 19:28:00,66.0,57.0,29.79,SE,142,0.0,-999.0,72,-99.99,,,0.00,weatherlink.com 1.10,2013-09-17 02:28:00,
2013-09-16 19:43:00,65.0,57.0,29.79,SE,142,0.0,-999.0,75,-99.99,,,0.00,weatherlink.com 1.10,2013-09-17 02:43:00,
2013-09-16 19:58:00,64.3,57.0,29.79,SE,142,0.0,-999.0,76,-99.99,,,0.00,weatherlink.com 1.10,2013-09-17 02:58:00,
2013-09-16 20:13:00,63.9,57.0,29.80,SE,142,0.0,-999.0,78,-99.99,,,0.00,weatherlink.com 1.10,2013-09-17 03:13:00,
2013-09-16 20:28:00,63.4,56.0,29.80,WSW,244,0.0,-999.0,78,-99.99,,,0.00,weatherlink.com 1.10,2013-09-17 03:28:00,
2013-09-16 20:43:00,63.2,56.0,29.81,SSE,163,1.0,-999.0,78,-99.99,,,0.00,weatherlink.com 1.10,2013-09-17 03:43:00,
2013-09-16 20:58:00,62.9,56.0,29.81,South,171,2.0,-999.0,78,-99.99,,,0.00,weatherlink.com 1.10,2013-09-17 03:58:00,
2013-09-16 21:13:00,62.6,56.0,29.81,South,184,1.0,-999.0,79,-99.99,,,0.00,weatherlink.com 1.10,2013-09-17 04:13:00,
2013-09-16 21:28:00,62.1,56.0,29.82,SW,235,3.0,-999.0,80,-99.99,,,0.00,weatherlink.com 1.10,2013-09-17 04:28:00,
2013-09-16 21:43:00,61.8,56.0,29.82,SSW,193,0.0,-999.0,81,-99.99,,,0.00,weatherlink.com 1.10,2013-09-17 04:43:00,
2013-09-16 21:58:00,61.2,55.0,29.82,East,100,0.0,-999.0,81,-99.99,,,0.00,weatherlink.com 1.10,2013-09-17 04:58:00,
2013-09-16 22:13:00,60.9,55.0,29.83,South,180,0.0,-999.0,82,-99.99,,,0.00,weatherlink.com 1.10,2013-09-17 05:13:00,
2013-09-16 22:28:00,60.5,55.0,29.83,SSW,213,2.0,-999.0,83,-99.99,,,0.00,weatherlink.com 1.10,2013-09-17 05:28:00,
2013-09-16 22:43:00,60.2,55.0,29.83,SSE,165,0.0,-999.0,84,-99.99,,,0.00,weatherlink.com 1.10,2013-09-17 05:43:00,
2013-09-16 22:58:00,59.9,55.0,29.83,ESE,105,0.0,-999.0,84,-99.99,,,0.00,weatherlink.com 1.10,2013-09-17 05:58:00,
2013-09-16 23:13:00,59.9,55.0,29.84,SE,127,0.0,-999.0,85,-99.99,,,0.00,weatherlink.com 1.10,2013-09-17 06:13:00,
2013-09-16 23:28:00,59.8,55.0,29.84,WSW,246,1.0,-999.0,85,-99.99,,,0.00,weatherlink.com 1.10,2013-09-17 06:28:00,
2013-09-16 23:43:00,59.6,55.0,29.84,SSW,197,0.0,-999.0,85,-99.99,,,0.00,weatherlink.com 1.10,2013-09-17 06:43:00,
2013-09-16 23:58:00,59.5,55.0,29.84,ESE,105,2.0,-999.0,85,-99.99,,,0.00,weatherlink.com 1.10,2013-09-17 06:58:00,